SBI5208 UHWW-UNNT

Flight info

Callsign SBI5208
Flight time N/A
Altitude 31000
Route DCT DOLMA B356 TD B355 HAB/N0400F320 L168 IVADA A946 TORMA N992 GU G363 BRT B151 LURIN/N0403F340 B151 KESED B926 NATIR DCT
Aircraft B738/M-SADE2FGHIJ1RWXY/LB1

Departure

Time 2026-04-26 08:16
Airport Vladivostok International Airport (UHWW)

Arrival

Time N/A
Airport Novosibirsk Tolmachevo Airport (UNNT)
Time Latitude Longitude Altitude Speed Heading
2026-04-26 07:40 43.39716 132.16483 68 ft 0 kts 152°
2026-04-26 08:05 43.39723 132.16478 68 ft 2 kts 150°
2026-04-26 08:05 43.39740 132.16464 59 ft 3 kts 146°
2026-04-26 08:06 43.39756 132.16448 65 ft 3 kts 139°
2026-04-26 08:06 43.39771 132.16429 62 ft 3 kts 129°
2026-04-26 08:06 43.39782 132.16407 68 ft 3 kts 107°
2026-04-26 08:06 43.39784 132.16385 66 ft 2 kts 65°
2026-04-26 08:07 43.39783 132.16381 63 ft 0 kts 60°
2026-04-26 08:12 43.39783 132.16382 64 ft 2 kts 60°
2026-04-26 08:12 43.39803 132.16432 66 ft 9 kts 60°
2026-04-26 08:12 43.39834 132.16507 64 ft 9 kts 60°
2026-04-26 08:13 43.39865 132.16581 68 ft 10 kts 60°
2026-04-26 08:13 43.39909 132.16690 68 ft 14 kts 60°
2026-04-26 08:13 43.39956 132.16806 61 ft 14 kts 60°
2026-04-26 08:13 43.40001 132.16916 60 ft 13 kts 60°
2026-04-26 08:14 43.40045 132.17023 62 ft 13 kts 60°
2026-04-26 08:14 43.40110 132.17083 62 ft 12 kts 346°
2026-04-26 08:14 43.40185 132.17032 68 ft 12 kts 329°
2026-04-26 08:14 43.40258 132.16976 64 ft 12 kts 331°
2026-04-26 08:15 43.40330 132.16928 65 ft 11 kts 334°
2026-04-26 08:15 43.40400 132.16878 67 ft 11 kts 332°
2026-04-26 08:15 43.40427 132.16795 59 ft 10 kts 257°
2026-04-26 08:15 43.40395 132.16705 61 ft 14 kts 240°
2026-04-26 08:16 43.40242 132.16327 63 ft 78 kts 240°
2026-04-26 08:16 43.39872 132.15413 64 ft 137 kts 240°
2026-04-26 08:16 43.39330 132.14086 196 ft 172 kts 240°
2026-04-26 08:16 43.38730 132.12648 806 ft 185 kts 241°
2026-04-26 08:17 43.37951 132.11098 1311 ft 202 kts 223°
2026-04-26 08:17 43.36846 132.09885 1961 ft 211 kts 218°
2026-04-26 08:17 43.35646 132.08554 2139 ft 231 kts 219°
2026-04-26 08:17 43.34376 132.07119 2409 ft 241 kts 219°
2026-04-26 08:18 43.33061 132.05662 2882 ft 244 kts 220°
2026-04-26 08:18 43.31751 132.04163 3315 ft 247 kts 220°
2026-04-26 08:18 43.30428 132.02634 3823 ft 247 kts 220°
2026-04-26 08:18 43.29092 132.01091 4163 ft 259 kts 221°
2026-04-26 08:19 43.27686 131.99469 4614 ft 268 kts 221°
2026-04-26 08:19 43.26259 131.97829 5311 ft 268 kts 221°
2026-04-26 08:19 43.24826 131.96195 6009 ft 267 kts 219°
2026-04-26 08:19 43.23206 131.94954 6676 ft 272 kts 194°
2026-04-26 08:20 43.21354 131.95071 7371 ft 277 kts 162°
2026-04-26 08:20 43.19776 131.96609 7958 ft 288 kts 129°
2026-04-26 08:20 43.18985 131.99157 8455 ft 300 kts 99°
2026-04-26 08:20 43.18715 132.01993 9071 ft 302 kts 105°
2026-04-26 08:21 43.18135 132.04780 9569 ft 307 kts 107°
2026-04-26 08:21 43.17841 132.07733 10070 ft 316 kts 95°
2026-04-26 08:21 43.17783 132.10818 10257 ft 335 kts 94°
2026-04-26 08:21 43.17716 132.14099 10407 ft 353 kts 96°
2026-04-26 08:22 43.17535 132.17554 10544 ft 371 kts 98°
2026-04-26 08:22 43.17271 132.21150 10673 ft 388 kts 99°
2026-04-26 08:22 43.16989 132.24888 10930 ft 400 kts 99°
2026-04-26 08:22 43.16714 132.28701 11438 ft 404 kts 99°
2026-04-26 08:23 43.16453 132.32527 11966 ft 408 kts 99°
2026-04-26 08:23 43.16193 132.36440 12396 ft 415 kts 99°
2026-04-26 08:23 43.15950 132.40410 12872 ft 422 kts 96°
2026-04-26 08:23 43.16004 132.44434 13518 ft 425 kts 85°
2026-04-26 08:24 43.16882 132.48333 13956 ft 435 kts 60°
2026-04-26 08:24 43.18810 132.51493 14617 ft 430 kts 35°
2026-04-26 08:24 43.21255 132.53674 15395 ft 423 kts 26°
2026-04-26 08:24 43.23830 132.55686 15813 ft 431 kts 26°
2026-04-26 08:25 43.26438 132.57802 16206 ft 440 kts 29°
2026-04-26 08:25 43.28964 132.60190 16799 ft 442 kts 34°
2026-04-26 08:25 43.31415 132.62761 17406 ft 443 kts 36°
2026-04-26 08:25 43.33862 132.65446 17898 ft 447 kts 37°
2026-04-26 08:26 43.36265 132.68113 18340 ft 452 kts 37°
2026-04-26 08:26 43.38716 132.70831 18867 ft 454 kts 37°
2026-04-26 08:26 43.41186 132.73552 19362 ft 456 kts 37°
2026-04-26 08:26 43.43676 132.76275 19830 ft 459 kts 36°
2026-04-26 08:27 43.46185 132.79008 20266 ft 462 kts 36°
2026-04-26 08:27 43.48722 132.81765 20644 ft 466 kts 36°
2026-04-26 08:27 43.51273 132.84536 21038 ft 468 kts 36°
2026-04-26 08:27 43.53833 132.87321 21467 ft 470 kts 36°
2026-04-26 08:28 43.56400 132.90121 21876 ft 472 kts 36°
2026-04-26 08:28 43.58978 132.92935 22265 ft 474 kts 36°
2026-04-26 08:28 43.61567 132.95763 22616 ft 476 kts 36°
2026-04-26 08:28 43.64181 132.98621 22923 ft 480 kts 36°
2026-04-26 08:29 43.66799 133.01489 23291 ft 481 kts 36°
2026-04-26 08:29 43.69423 133.04369 23640 ft 483 kts 36°
2026-04-26 08:29 43.72059 133.07264 23973 ft 485 kts 36°
2026-04-26 08:29 43.74708 133.10176 24298 ft 488 kts 36°
2026-04-26 08:30 43.77372 133.13110 24663 ft 489 kts 36°
2026-04-26 08:30 43.80036 133.16045 24996 ft 491 kts 36°
2026-04-26 08:30 43.82711 133.18996 25284 ft 493 kts 36°
2026-04-26 08:30 43.85402 133.21966 25536 ft 496 kts 36°
2026-04-26 08:31 43.88112 133.24946 25821 ft 498 kts 34°
2026-04-26 08:31 43.90885 133.27754 26072 ft 499 kts 31°
2026-04-26 08:31 43.93789 133.30389 26375 ft 499 kts 28°
2026-04-26 08:31 43.96774 133.32843 26662 ft 499 kts 25°
2026-04-26 08:32 43.99828 133.35140 26926 ft 500 kts 23°
2026-04-26 08:32 44.02931 133.37338 27168 ft 502 kts 22°
2026-04-26 08:32 44.06049 133.39551 27364 ft 506 kts 23°
2026-04-26 08:32 44.09188 133.41856 27465 ft 512 kts 24°
2026-04-26 08:33 44.12306 133.44238 27701 ft 514 kts 25°
2026-04-26 08:33 44.15428 133.46694 28027 ft 514 kts 26°
2026-04-26 08:33 44.18524 133.49174 28330 ft 514 kts 26°
2026-04-26 08:33 44.21620 133.51672 28575 ft 515 kts 26°
2026-04-26 08:34 44.24726 133.54182 28785 ft 517 kts 26°
2026-04-26 08:34 44.26798 133.55854 28971 ft 517 kts 26°
2026-04-26 08:34 44.29906 133.58360 29310 ft 515 kts 26°
2026-04-26 08:34 44.33003 133.60856 29681 ft 513 kts 26°
2026-04-26 08:35 44.36089 133.63342 30006 ft 512 kts 26°
2026-04-26 08:35 44.40223 133.66671 30257 ft 515 kts 26°
2026-04-26 08:35 44.45417 133.70861 30565 ft 517 kts 26°
2026-04-26 08:36 44.48528 133.73378 30909 ft 515 kts 26°
2026-04-26 08:36 44.51622 133.75886 31246 ft 513 kts 26°
2026-04-26 08:36 44.54709 133.78390 31496 ft 513 kts 26°
2026-04-26 08:36 44.57802 133.80902 31686 ft 514 kts 26°
2026-04-26 08:37 44.60901 133.83420 31861 ft 515 kts 26°
2026-04-26 08:37 44.64003 133.85944 32060 ft 516 kts 26°
2026-04-26 08:37 44.67104 133.88472 32319 ft 514 kts 26°
2026-04-26 08:37 44.70194 133.90995 32577 ft 513 kts 26°
2026-04-26 08:38 44.73280 133.93516 32745 ft 514 kts 26°
2026-04-26 08:38 44.76382 133.96055 32886 ft 516 kts 26°
2026-04-26 08:38 44.79483 133.98594 33084 ft 516 kts 26°
2026-04-26 08:38 44.82585 134.01137 33307 ft 515 kts 26°
2026-04-26 08:39 44.85687 134.03656 33530 ft 514 kts 25°
2026-04-26 08:39 44.88796 134.06108 33788 ft 511 kts 24°
2026-04-26 08:39 44.91915 134.08526 33956 ft 511 kts 24°
2026-04-26 08:39 44.95047 134.10939 33907 ft 515 kts 24°
2026-04-26 08:40 45.01362 134.15826 33934 ft 521 kts 24°
2026-04-26 08:40 45.07730 134.20805 33948 ft 525 kts 24°
2026-04-26 08:41 45.14136 134.25847 33926 ft 528 kts 24°
2026-04-26 08:41 45.20566 134.30925 33934 ft 530 kts 24°
2026-04-26 08:42 45.26967 134.35990 33930 ft 530 kts 24°
2026-04-26 08:42 45.33405 134.41093 33942 ft 530 kts 24°